Location: Morrison Observatory
(41.7012°N, 86.2315°W)
Time: 08:00:29
(UTC-05:00)

Daily predictions for brighter satellites

Satellite Brightness Start Highest point End
(mag) Time Altitude Azimuth Time Altitude Azimuth Time Altitude Azimuth
Cosmos 1076 Rocket 3.6 18:04:21 10° S 18:08:35 86° W 18:12:52 10° N
Lacrosse 5 3.1 18:05:46 10° W 18:10:26 35° NNW 18:15:07 10° NNE
Cosmos 2034 Rocket 4.1 18:05:05 10° N 18:11:28 90° NE 18:17:51 10° S
Cosmos 2322 Rocket 4.0 18:07:29 10° WSW 18:12:17 27° NW 18:17:06 10° N
Cosmos 389 Rocket 2.5 18:08:44 10° N 18:12:20 63° E 18:15:51 10° SSE
Abrixas rocket 2.6 18:09:02 10° WNW 18:12:20 67° SSW 18:15:38 10° SE
Cosmos 2219 Rocket 3.0 18:08:04 10° SSE 18:13:00 32° ESE 18:17:57 10° NE
CZ-2C R/B 2.5 18:08:18 10° SSE 18:13:20 87° WSW 18:18:16 10° NNW
Cosmos 2278 Rocket 3.2 18:11:12 10° N 18:15:49 24° NE 18:20:23 10° ESE
MSX 3.8 18:10:42 10° SSE 18:16:21 69° ENE 18:22:03 10° N
SMAP 3.1 18:11:56 10° SSE 18:16:35 89° E 18:21:16 10° NNW
Cosmos 44 Rocket 4.4 18:14:01 10° S 18:18:23 29° ESE 18:22:42 10° NE
Cosmos 2221 3.9 18:16:05 10° NNW 18:20:07 42° W 18:24:08 10° SSW
Cosmos 1908 3.2 18:17:43 10° N 18:21:36 69° E 18:25:28 10° SSE
OTV 4 1.5 18:23:18 10° WSW 18:26:07 39° S 18:28:54 10° ESE
Cosmos 1763 Rocket 3.5 18:21:16 10° S 18:26:28 69° ESE 18:31:37 10° NNE
Cosmos 1844 4.0 18:20:59 10° NNW 18:26:33 47° ENE 18:32:07 10° SE
Cosmos 1484 Rocket 2.8 18:27:07 10° SSE 18:30:56 56° ENE 18:34:51 10° N
Resurs 01 Rocket 3.4 18:31:09 12° ENE 18:31:28 12° ENE 18:33:07 10° NE
Cosmos 1674 2.7 18:30:36 10° S 18:34:24 87° W 18:38:16 10° N
COSMOS 2441 4.3 18:29:51 10° SSE 18:34:44 84° ENE 18:39:37 10° NNW
Cosmos 1766 Rocket 4.3 18:30:57 10° SSW 18:35:21 58° W 18:39:46 10° N
COSMOS 2428 2.8 18:29:55 10° SSW 18:35:38 90° ESE 18:41:24 10° NNE
Elektron 3 4.4 18:32:56 10° NW 18:38:29 86° SW 18:41:37 10° SE
Cosmos 2237 Rocket 2.9 18:37:07 10° SSE 18:42:05 33° ESE 18:46:42 12° NE
CZ-4 R/B 3.2 18:38:58 10° SSW 18:42:30 33° W 18:46:03 10° NNW
COSMO-SKYMED 1 2.6 18:39:37 10° NNE 18:43:56 62° E 18:48:13 10° S
Cosmos 2228 Rocket 3.1 18:41:18 10° N 18:45:43 83° W 18:50:08 10° S
YAOGAN 1 3.6 18:41:49 10° S 18:45:59 49° W 18:50:13 10° NNW
Lacrosse 5 rocket 2.7 18:43:13 10° NNW 18:46:02 20° NNE 18:47:12 17° NE
SL-16 R/B 3.7 18:43:14 10° SE 18:46:18 15° E 18:46:58 15° E
Cosmos 2084 3.8 18:42:56 10° S 18:46:34 38° ESE 18:48:51 19° ENE
Hubble Space Telescope 3.5 18:46:20 10° SSW 18:47:32 11° S 18:48:44 10° S
Cosmos 2279 Rocket 4.4 18:42:04 10° N 18:47:52 40° ENE 18:53:39 10° SE
Cosmos 1300 3.0 18:45:22 10° N 18:49:02 41° ENE 18:52:41 10° SSE
Cosmos 540 Rocket 4.0 18:45:21 10° S 18:50:06 38° ESE 18:54:24 12° NE
Thor Agena Rocket 4.2 18:44:57 10° N 18:50:08 60° WNW 18:55:14 10° SSW
NOAA 12 4.4 18:45:16 10° SE 18:50:11 44° ENE 18:55:09 10° N
USA 215 3.2 18:45:36 10° ESE 18:52:09 74° NE 18:58:41 10° NW
Cosmos 1726 2.2 18:53:19 10° N 18:57:01 54° E 19:00:43 10° SSE
DMSP B5D1-3 4.5 18:52:55 10° NNE 18:58:00 63° ESE 19:03:01 10° S
Meteor 2-2 Rocket 4.3 18:52:22 10° NNW 18:58:00 80° W 19:03:38 10° S
Cosmos 1125 Rocket 3.5 18:55:09 10° NNW 19:00:19 59° ENE 19:05:26 10° SSE
Meteor 1-11 4.4 18:56:38 10° SSE 19:02:02 48° E 19:07:32 10° NNE
Cosmos 1328 3.7 19:03:00 10° S 19:06:57 88° E 19:10:55 10° N
Cosmos 332 Rocket 4.1 19:04:46 10° SSW 19:09:33 67° WNW 19:14:24 10° NNE
Spot 2 Rocket 4.1 19:08:03 10° SE 19:12:29 32° ENE 19:16:56 10° N
Meteor 1-28 Rocket 3.1 19:10:21 10° N 19:14:04 84° WNW 19:17:47 10° SSW
DNEPR-1 R/B 4.4 19:08:17 10° SSW 19:15:21 83° ESE 19:19:39 20° NE
Cosmos 1844 Rocket 3.5 19:10:50 10° NNW 19:16:20 54° WSW 19:21:47 10° S
Cosmos 2058 2.8 19:13:20 10° S 19:17:23 63° E 19:20:16 19° NNE
SJ-6B 2.8 19:14:14 10° SSE 19:18:13 62° ENE 19:22:18 10° N
Cosmos 841 Rocket 4.4 19:14:19 10° SW 19:19:24 49° WNW 19:24:32 10° N
Abrixas 4.5 19:21:54 10° SSW 19:23:16 18° SSE 19:23:16 18° SSE
Cosmos 1980 3.6 19:23:19 10° SSW 19:28:59 89° ESE 19:33:12 19° NNE
ALOS 2.4 19:27:05 10° SE 19:31:34 49° ENE 19:36:04 10° N
Cosmos 44 3.3 19:30:50 10° SSW 19:36:08 85° ESE 19:38:08 38° NE
Aureole 2 Rocket 2.8 19:32:46 10° S 19:35:45 54° SSE 19:35:45 54° SSE
Cosmos 1703 3.7 19:33:44 10° S 19:36:39 45° SSE 19:36:39 45° SSE
Cosmos 2151 3.7 19:33:45 10° SSW 19:37:52 53° W 19:42:00 10° N
Cosmos 1805 Rocket 3.5 19:33:30 10° S 19:37:54 65° E 19:38:40 54° NE
CENTAUR R/B 3.7 19:33:28 10° WSW 19:39:14 38° NW 19:44:49 14° NNE
Cosmos 2333 Rocket 2.5 19:33:40 10° SW 19:39:15 65° WNW 19:43:40 17° NNE
Cosmos 371 Rocket 4.3 19:35:55 10° SW 19:40:31 46° WNW 19:44:40 13° N
BREEZE-M DEB (TANK) 3.2 19:39:47 10° W 19:41:18 28° WNW 19:41:18 28° WNW
FENGYUN 3A 3.5 19:38:47 10° SSE 19:44:04 65° ENE 19:49:24 10° N
Cosmos 1151 Rocket 4.5 19:40:25 10° NNW 19:44:22 38° W 19:48:19 10° SSW
SL-19 R/B 4.3 19:39:46 10° SSE 19:45:49 83° ENE 19:51:31 10° NNW
Cosmos 1340 Rocket 2.9 19:45:17 10° SSW 19:49:14 72° W 19:49:43 62° NNW
Lacrosse 5 3.9 19:51:46 10° NW 19:54:47 15° N 19:55:44 15° N
BREEZE-M DEB (TANK) 4.4 19:53:01 10° WSW 19:54:00 23° WSW 19:54:00 23° WSW
Cosmos 2219 Rocket 3.5 19:51:38 10° SW 19:56:51 37° WNW 20:01:24 13° N
Cosmos 44 Rocket 4.5 19:54:57 10° WSW 19:59:46 41° NW 20:01:52 27° N
Cosmos 2278 Rocket 2.9 19:54:41 10° NNW 20:00:12 54° WSW 20:05:42 10° S
OTV 4 3.2 19:59:21 10° WSW 20:00:26 17° WSW 20:00:26 17° WSW
Timation 1 Rocket 4.2 19:56:18 10° NNW 20:02:22 84° ENE 20:04:13 47° SSE
Resurs 01 Rocket 2.4 20:08:42 43° NNW 20:08:42 43° NNW 20:11:48 10° NNW
H-2A ROCKET BODY 3.9 20:09:46 10° WSW 20:24:05 31° SSW 20:25:48 27° S
Lacrosse 5 rocket 3.5 20:21:44 10° NW 20:22:58 20° NW 20:22:58 20° NW
Cosmos 2237 Rocket 3.5 20:20:56 10° WSW 20:26:04 36° WNW 20:28:35 24° N
SL-16 R/B 2.5 20:24:03 10° SSW 20:28:56 64° WSW 20:28:56 64° WSW
Cosmos 2297 4.2 20:32:31 10° NNW 20:37:58 56° WSW 20:37:58 56° WSW
